Tracking 18984 objects as of 24-Feb-2018
HD Live streaming from Space Station
objects crossing your sky now

SL-16 DEB

Track SL-16 DEB now!
10-day predictions


NORAD ID: 23089
Int'l Code: 1994-023C
Perigee: 846.2 km
Apogee: 1,141.4 km
Inclination: 71.0 °
Period: 104.8 minutes
Semi major axis: 7364 km
RCS: 0.0902 m2 (small)
Launch date: April 23, 1994
Source: Commonwealth of Independent States (former USSR) (CIS)
Launch site: TYURATAM MISSILE AND SPACE COMPLEX (TTMTR)

Note: This is SATELLITE DEBRIS
aabbcc
Your satellite tracking list
Your tracking list is empty




NASA's NSSDC Master Catalog

Two Line Element Set (TLE):
1 23089U 94023C   18054.59572091 -.00000010 +00000-0 +30836-4 0  9992
2 23089 071.0235 270.8169 0200385 321.0424 037.6380 13.73603699194737
Source of the keplerian elements: AFSPC